Regional Weather Roundup
Issued by NWS Portland, ME

Current Version | Previous Version | Text Only | Print | Product List | Glossary Off
Versions: 1 2 3 4 5 6 7 8 9 10 11 12 13 14 15 16 17 18 19 20 21 22 23 24 25 26 27 28 29 30 31 32 33 34 35 36 37 38 39 40 41 42 43 44 45 46 47 48 49 50

000
ASUS41 KGYX 040905
RWRGYX
WEATHER ROUNDUP FOR MAINE AND NEW HAMPSHIRE
NATIONAL WEATHER SERVICE GRAY ME
500 AM EDT FRI SEP 04 2015

MEZ002-005-006-010-012-015-018-020-021-024-026-027-029-041000-
MAINE

CITY           SKY/WX    TMP DP  RH WIND       PRES   REMARKS
PORTLAND       PTCLDY    62  50  64 N10       30.09R
SANFORD        CLOUDY    63  48  59 N12       30.09R
BAR HARBOR     CLEAR     54  54 100 N7        30.10R
WISCASSET      MOCLDY    60  48  64 CALM      30.11R
ROCKLAND       CLEAR     61  50  67 NE9       30.07S
FRYEBURG       CLEAR     59  52  77 N3        30.14R
LEWISTONAUBURN PTCLDY    59 N/A N/A N9        30.11R
AUGUSTA        CLEAR     57  48  72 N7        30.11R
WATERVILLE     CLEAR     55  45  67 N9        30.10R
BANGOR         CLEAR     54  48  80 NE7       30.12R
GREENVILLE       N/A     50  45  83 CALM      30.13R
MILLINOCKET    CLEAR     48  45  89 CALM      30.15R
HOULTON        CLEAR     42  40  92 CALM      30.12R
PRESQUE ISLE   CLEAR     43  39  87 CALM      30.14R
FRENCHVILLE    PTCLDY    46  42  86 NW7       30.14R
CARIBOU        PTCLDY    45  42  89 CALM      30.14R
$$

NHZ002-005-008-009-011-012-014-041000-
NEW HAMPSHIRE

CITY           SKY/WX    TMP DP  RH WIND       PRES   REMARKS
PORTSMOUTH     MOCLDY    68  55  63 NE9       30.05R
ROCHESTER      CLOUDY    65  53  65 NE9       30.07R
NASHUA         CLOUDY    70  58  65 E7G20     30.05R
MANCHESTER     CLOUDY    68  54  60 VRB5      30.05R
CONCORD        CLOUDY    68  59  73 NE6       30.06R
LACONIA        CLOUDY    64  48  55 NE15G21   30.09R
PLYMOUTH       FAIR      57  56  96 SE3       30.09R FOG
BERLIN         FOG       50  48  93 CALM      30.14R VSB 1/4
WHITEFIELD     MOCLDY    61  51  70 E10G21    30.10R
JAFFREY        CLOUDY    67  63  87 VRB5      30.07R
KEENE          MOCLDY    64  59  82 NE3       30.05R
LEBANON        CLEAR     56  54  93 CALM      30.08R
MT WASHINGTON  PTCLDY    50  37  62 W13         N/A
$$

VTZ005-007-008-041000-
VERMONT

CITY           SKY/WX    TMP DP  RH WIND       PRES   REMARKS
ST JOHNSBURY     N/A     52  49  89 MISG      30.09R
MONTPELIER     FOG       52  52 100 CALM      30.14R VSB 1/4
BURLINGTON     CLEAR     54  51  90 CALM      30.08R
$$

MAZ007-012-024-CTZ003-RIZ002-NYZ038-NYZ072-041000-
SOUTHERN NEW ENGLAND AND NY

CITY           SKY/WX    TMP DP  RH WIND       PRES   REMARKS
BOSTON         MOCLDY    67  59  75 NE22G30   30.01R
WORCESTER      CLOUDY    69  65  86 NE8       30.03R
NANTUCKET        N/A    N/A N/A N/A MISG        N/A
PROVIDENCE     CLOUDY    73  67  81 NE8       29.98R
HARTFORD       MOCLDY    71  65  81 N7        29.97R
ALBANY         PTCLDY    67  56  67 N8        30.01R
NEW YORK CITY  PTCLDY    77  66  68 NE5       29.92S
$$

ANZ081-ANZ082-ANZ150-NHZ014-MEZ023>029-041000-
COASTAL MARINE OBSERVATIONS

STATION/POSITION TIME  TEMP    WIND        PRES    WAVE
                       AIR SEA DIR/SP/G            HT/PER
                 (UTC) (F)     (DEG/KT/KT) (MB)    (FT/S)
MOUNT DESERT ROC 0900   58      30/ 21/ 22 1018.1R
MATINICUS ROCK   0800           30/ 18/ 19 1016.9R
ISLE OF SHOALS   0800   67      40/ 23/ 29 1015.9R
JEFFREYS LEDGE   0803      63                N/A     3/ 4
CASHES LEDGE BUO 0850   62                 1016.3R   5/ 5
GEORGES BANK BUO 0750   70 70  330/  8/ 10 1013.1    1/12
$$

.............KEY..............
   WCI - WIND CHILL
   TC  - TEMPERATURE IN CELSIUS
   VSB - VISIBILITY IN MILES
   HX  - HEAT INDEX
   FAIR- INDICATES FEW OR NO CLOUDS BELOW 12,000 FT, WITH NO
         SIGNIFICANT WEATHER AND/OR OBSTRUCTIONS TO VISIBILITY.





USA.gov is the U.S. government's official web portal to all federal, state and local government web resources and services.